Location: Góry Miechowskie
(50.3599°N, 20.1803°E)
Time: 06:54:00
(UTC+00:00)

A-11 Canister half - Pass Details

Date: 15 September 2024
Orbit: 1515 x 1684 km, 47.2° (Epoch: 05 October)

Event Time Altitude Azimuth Distance (km) Brightness Sun altitude
Rises 16:24:23 0° 209° (SSW) 4,741 12.0 3.6°
Reaches altitude 10° 16:27:50 10° 200° (SSW) 3,737 11.3 3.1°
Maximum altitude 16:35:54 34° 141° (SE) 2,329 9.7 1.8°
Drops below altitude 10° 16:43:51 10° 81° (E) 3,681 10.4 0.5°
Sets 16:47:13 0° 73° (ENE) 4,662 10.9 0.0°
